| time (UTC) | temp F | wind direction | speed MPH | gust MPH | rain 1hr in | rain 24hr in | rain mn in | humidity % | barometer mb |
| 20260906044141 | 75 | 292 | 1.0 | 11.0 | 0.00 | 0.00 | 0.00 | 91 | 1011.5 |
| 20260906043641 | 75 | 14 | 2.0 | 11.0 | 0.00 | 0.00 | 0.00 | 91 | 1011.3 |
| 20260906043140 | 75 | 19 | 2.0 | 11.0 | 0.00 | 0.00 | 0.00 | 90 | 1011.7 |
| 20260906042123 | 75 | 6 | 2.0 | 11.0 | 0.00 | 0.00 | 0.00 | 90 | 1011.3 |
| 20260906041622 | 75 | 55 | 2.0 | 11.0 | 0.00 | 0.00 | 0.00 | 90 | 1011.1 |
| 20260906041122 | 75 | 22 | 1.0 | 11.0 | 0.00 | 0.00 | 0.00 | 90 | 1011.3 |
| 20260906040621 | 76 | 47 | 2.0 | 11.0 | 0.00 | 0.00 | 0.00 | 90 | 1011.0 |
| 20260906040121 | 76 | 203 | 1.0 | 11.0 | 0.00 | 0.00 | 0.00 | 89 | 1011.2 |
| 20260906035105 | 76 | 45 | 2.0 | 11.0 | 0.00 | 0.00 | 0.00 | 89 | 1011.2 |
| 20260906034605 | 76 | 223 | 1.0 | 11.0 | 0.00 | 0.00 | 0.00 | 89 | 1011.2 |
| 20260906033549 | 76 | 40 | 5.0 | 11.0 | 0.00 | 0.00 | 0.00 | 89 | 1011.1 |
| 20260906033048 | 76 | 57 | 3.0 | 11.0 | 0.00 | 0.00 | 0.04 | 89 | 1011.1 |
| 20260906032548 | 76 | 35 | 4.0 | 11.0 | 0.00 | 0.00 | 0.04 | 89 | 1011.1 |
| 20260906030500 | 77 | 100 | 2.0 | 11.0 | 0.00 | 0.00 | 0.04 | 89 | 1011.2 |
| 20260906030001 | 77 | 44 | 3.0 | 11.0 | 0.00 | 0.00 | 0.04 | 89 | 1010.7 |
| 20260906025500 | 77 | 39 | 4.0 | 11.0 | 0.00 | 0.00 | 0.04 | 89 | 1010.9 |
| 20260906025001 | 77 | 41 | 4.0 | 11.0 | 0.00 | 0.00 | 0.04 | 89 | 1011.0 |
| 20260906024501 | 77 | 40 | 2.0 | 11.0 | 0.00 | 0.00 | 0.04 | 89 | 1011.1 |
| 20260906024001 | 77 | 43 | 5.0 | 11.0 | 0.00 | 0.00 | 0.04 | 89 | 1011.0 |
| 20260906022945 | 77 | 53 | 4.0 | 11.0 | 0.00 | 0.00 | 0.04 | 89 | 1011.2 |
| 20260906022445 | 77 | 45 | 3.0 | 11.0 | 0.00 | 0.00 | 0.04 | 89 | 1011.2 |
| 20260906021944 | 77 | 313 | 2.0 | 11.0 | 0.00 | 0.00 | 0.04 | 88 | 1010.8 |
| 20260906021444 | 77 | 48 | 3.0 | 11.0 | 0.00 | 0.00 | 0.04 | 88 | 1010.7 |
| 20260906020428 | 77 | 39 | 4.0 | 11.0 | 0.00 | 0.00 | 0.04 | 87 | 1010.7 |
| 20260906015928 | 77 | 53 | 4.0 | 11.0 | 0.00 | 0.00 | 0.04 | 87 | 1010.4 |
| 20260906015428 | 77 | 44 | 5.0 | 11.0 | 0.00 | 0.00 | 0.04 | 86 | 1010.5 |
| 20260906014413 | 78 | 18 | 3.0 | 12.0 | 0.00 | 0.00 | 0.04 | 84 | 1010.2 |
| 20260906013913 | 78 | 57 | 3.0 | 12.0 | 0.00 | 0.00 | 0.04 | 83 | 1010.1 |
| 20260906013413 | 78 | 51 | 5.0 | 12.0 | 0.00 | 0.00 | 0.04 | 81 | 1010.1 |
| 20260906012357 | 78 | 63 | 4.0 | 12.0 | 0.00 | 0.00 | 0.04 | 79 | 1010.1 |
| 20260906011856 | 78 | 136 | 1.0 | 12.0 | 0.00 | 0.00 | 0.04 | 78 | 1010.0 |
| 20260906011356 | 78 | 80 | 1.0 | 12.0 | 0.00 | 0.00 | 0.04 | 78 | 1009.9 |
| 20260906010855 | 78 | 44 | 1.0 | 12.0 | 0.00 | 0.00 | 0.04 | 78 | 1010.0 |
| 20260906010354 | 78 | 10 | 1.0 | 12.0 | 0.00 | 0.00 | 0.04 | 78 | 1009.7 |
| 20260906005854 | 78 | 2 | 2.0 | 12.0 | 0.00 | 0.00 | 0.04 | 77 | 1009.7 |
| 20260906005354 | 79 | 17 | 2.0 | 12.0 | 0.00 | 0.00 | 0.04 | 77 | 1009.9 |
| 20260906003823 | 79 | 20 | 2.0 | 12.0 | 0.00 | 0.00 | 0.04 | 77 | 1009.5 |
| 20260906003322 | 79 | 55 | 1.0 | 12.0 | 0.00 | 0.00 | 0.04 | 77 | 1009.5 |
| 20260906002822 | 79 | 71 | 0.0 | 12.0 | 0.00 | 0.00 | 0.04 | 76 | 1009.3 |
| 20260906002321 | 79 | 11 | 3.0 | 12.0 | 0.00 | 0.00 | 0.04 | 76 | 1009.1 |
| 20260906001305 | 80 | 51 | 2.0 | 12.0 | 0.00 | 0.00 | 0.04 | 75 | 1009.2 |
| 20260906000804 | 80 | 31 | 1.0 | 12.0 | 0.00 | 0.00 | 0.04 | 74 | 1009.1 |
| 20260906000304 | 80 | 43 | 1.0 | 12.0 | 0.00 | 0.00 | 0.04 | 74 | 1009.2 |
| 20260905235248 | 80 | 100 | 2.0 | 12.0 | 0.00 | 0.00 | 0.04 | 73 | 1009.2 |
| 20260905234233 | 80 | 75 | 1.0 | 12.0 | 0.00 | 0.00 | 0.04 | 74 | 1009.1 |
| 20260905233732 | 81 | 34 | 3.0 | 12.0 | 0.00 | 0.00 | 0.04 | 73 | 1009.0 |
| 20260905233231 | 81 | 14 | 2.0 | 12.0 | 0.00 | 0.00 | 0.04 | 73 | 1009.4 |
| 20260905232730 | 81 | 29 | 2.0 | 12.0 | 0.00 | 0.00 | 0.04 | 74 | 1008.2 |
| 20260905231714 | 81 | 32 | 3.0 | 12.0 | 0.00 | 0.00 | 0.04 | 73 | 1008.4 |
| 20260905231213 | 82 | 85 | 2.0 | 12.0 | 0.00 | 0.00 | 0.04 | 74 | 1009.3 |
| 20260905230712 | 83 | 60 | 4.0 | 14.0 | 0.00 | 0.00 | 0.04 | 72 | 1009.1 |
| 20260905230212 | 84 | 30 | 4.0 | 15.0 | 0.00 | 0.00 | 0.04 | 71 | 1009.5 |
| 20260905225712 | 86 | 43 | 5.0 | 15.0 | 0.00 | 0.00 | 0.04 | 67 | 1009.7 |
| 20260905225211 | 89 | 19 | 7.0 | 16.0 | 0.00 | 0.00 | 0.04 | 64 | 1009.4 |
| 20260905224710 | 91 | 44 | 3.0 | 16.0 | 0.00 | 0.00 | 0.04 | 63 | 1010.0 |
| 20260905224209 | 91 | 13 | 3.0 | 11.0 | 0.00 | 0.00 | 0.04 | 63 | 1009.4 |
| 20260905223709 | 91 | 311 | 2.0 | 11.0 | 0.00 | 0.00 | 0.04 | 64 | 1009.5 |
| 20260905223209 | 91 | 309 | 3.0 | 11.0 | 0.00 | 0.00 | 0.04 | 64 | 1009.4 |
| 20260905222709 | 91 | 290 | 1.0 | 11.0 | 0.00 | 0.00 | 0.04 | 63 | 1009.7 |
| 20260905222209 | 91 | 35 | 2.0 | 11.0 | 0.00 | 0.00 | 0.04 | 63 | 1009.9 |
| 20260905221154 | 92 | 97 | 2.0 | 11.0 | 0.00 | 0.00 | 0.04 | 63 | 1009.4 |
| 20260905220653 | 91 | 315 | 3.0 | 11.0 | 0.00 | 0.00 | 0.04 | 63 | 1009.7 |
| 20260905220152 | 91 | 296 | 3.0 | 11.0 | 0.00 | 0.00 | 0.04 | 63 | 1009.7 |
| 20260905215651 | 91 | 310 | 2.0 | 11.0 | 0.00 | 0.00 | 0.04 | 63 | 1009.2 |
| 20260905214634 | 91 | 257 | 2.0 | 11.0 | 0.00 | 0.00 | 0.04 | 62 | 1009.0 |
| 20260905214134 | 91 | 261 | 2.0 | 11.0 | 0.00 | 0.00 | 0.04 | 61 | 1008.8 |
| 20260905213634 | 91 | 279 | 3.0 | 11.0 | 0.00 | 0.00 | 0.04 | 61 | 1009.1 |
| 20260905213134 | 91 | 259 | 2.0 | 11.0 | 0.00 | 0.00 | 0.04 | 61 | 1008.9 |
| 20260905211602 | 92 | 299 | 4.0 | 11.0 | 0.00 | 0.00 | 0.04 | 59 | 1008.8 |
| 20260905211101 | 93 | 290 | 4.0 | 11.0 | 0.00 | 0.00 | 0.04 | 58 | 1008.8 |
| 20260905210601 | 92 | 276 | 3.0 | 11.0 | 0.00 | 0.00 | 0.04 | 59 | 1008.7 |
| 20260905210100 | 93 | 298 | 3.0 | 11.0 | 0.00 | 0.00 | 0.04 | 58 | 1009.0 |
| 20260905205559 | 93 | 287 | 4.0 | 11.0 | 0.00 | 0.00 | 0.04 | 58 | 1009.5 |
| 20260905204542 | 93 | 249 | 3.0 | 11.0 | 0.00 | 0.00 | 0.04 | 56 | 1009.3 |
| 20260905204042 | 93 | 284 | 4.0 | 11.0 | 0.00 | 0.00 | 0.04 | 56 | 1009.5 |
| 20260905203542 | 94 | 301 | 3.0 | 11.0 | 0.00 | 0.00 | 0.04 | 56 | 1009.5 |
| 20260905203041 | 94 | 272 | 1.0 | 11.0 | 0.00 | 0.00 | 0.04 | 55 | 1009.5 |
| 20260905202541 | 94 | 310 | 4.0 | 11.0 | 0.00 | 0.00 | 0.04 | 55 | 1009.8 |
| 20260905202041 | 95 | 255 | 3.0 | 11.0 | 0.00 | 0.00 | 0.04 | 54 | 1009.7 |
| 20260905201541 | 95 | 315 | 3.0 | 11.0 | 0.00 | 0.00 | 0.04 | 55 | 1009.7 |
| 20260905201040 | 95 | 282 | 2.0 | 11.0 | 0.00 | 0.00 | 0.04 | 54 | 1010.3 |
| 20260905200540 | 95 | 295 | 4.0 | 11.0 | 0.00 | 0.00 | 0.04 | 53 | 1009.9 |
| 20260905200039 | 96 | 317 | 2.0 | 11.0 | 0.00 | 0.00 | 0.04 | 53 | 1009.8 |
| 20260905195023 | 96 | 232 | 3.0 | 11.0 | 0.00 | 0.00 | 0.04 | 52 | 1010.0 |
| 20260905194523 | 96 | 216 | 1.0 | 11.0 | 0.00 | 0.00 | 0.04 | 52 | 1010.2 |
| 20260905194022 | 96 | 245 | 1.0 | 11.0 | 0.00 | 0.00 | 0.04 | 51 | 1010.0 |
| 20260905193522 | 96 | 209 | 4.0 | 11.0 | 0.00 | 0.00 | 0.04 | 52 | 1009.8 |
| 20260905193022 | 96 | 183 | 1.0 | 11.0 | 0.00 | 0.00 | 0.04 | 52 | 1010.1 |
| 20260905192522 | 95 | 233 | 2.0 | 11.0 | 0.00 | 0.00 | 0.04 | 52 | 1010.1 |
| 20260905192022 | 95 | 253 | 2.0 | 11.0 | 0.00 | 0.00 | 0.04 | 52 | 1010.2 |
| 20260905191522 | 95 | 210 | 4.0 | 11.0 | 0.00 | 0.00 | 0.04 | 53 | 1010.5 |
| 20260905191021 | 95 | 219 | 4.0 | 11.0 | 0.00 | 0.00 | 0.04 | 53 | 1010.4 |
| 20260905190521 | 95 | 233 | 4.0 | 11.0 | 0.00 | 0.00 | 0.04 | 53 | 1010.7 |
| 20260905190021 | 95 | 258 | 1.0 | 11.0 | 0.00 | 0.00 | 0.04 | 53 | 1010.6 |
| 20260905185521 | 95 | 208 | 4.0 | 11.0 | 0.00 | 0.00 | 0.04 | 53 | 1010.4 |
| 20260905185021 | 95 | 213 | 3.0 | 11.0 | 0.00 | 0.00 | 0.04 | 52 | 1010.6 |
| 20260905184521 | 94 | 229 | 4.0 | 11.0 | 0.00 | 0.00 | 0.04 | 53 | 1010.7 |
| 20260905184021 | 94 | 266 | 3.0 | 11.0 | 0.00 | 0.00 | 0.04 | 53 | 1010.8 |
| 20260905183521 | 93 | 221 | 3.0 | 11.0 | 0.00 | 0.00 | 0.04 | 54 | 1010.8 |
| 20260905183020 | 93 | 201 | 5.0 | 11.0 | 0.00 | 0.00 | 0.04 | 54 | 1010.9 |
| 20260905182520 | 93 | 206 | 4.0 | 11.0 | 0.00 | 0.00 | 0.04 | 54 | 1010.9 |
| 20260905182020 | 93 | 205 | 5.0 | 11.0 | 0.00 | 0.00 | 0.04 | 54 | 1010.9 |
| 20260905181520 | 93 | 228 | 4.0 | 11.0 | 0.00 | 0.00 | 0.04 | 54 | 1011.0 |
| 20260905180505 | 93 | 239 | 4.0 | 11.0 | 0.00 | 0.00 | 0.04 | 54 | 1011.1 |
| 20260905180005 | 92 | 227 | 4.0 | 11.0 | 0.00 | 0.00 | 0.04 | 55 | 1011.0 |
| 20260905175504 | 92 | 216 | 4.0 | 11.0 | 0.00 | 0.00 | 0.04 | 55 | 1011.1 |
| 20260905175003 | 92 | 189 | 5.0 | 11.0 | 0.00 | 0.00 | 0.04 | 56 | 1011.1 |
| 20260905174503 | 91 | 220 | 5.0 | 11.0 | 0.00 | 0.00 | 0.04 | 56 | 1011.2 |
| 20260905174003 | 91 | 210 | 4.0 | 11.0 | 0.00 | 0.00 | 0.04 | 56 | 1011.1 |
| 20260905172432 | 89 | 211 | 4.0 | 11.0 | 0.00 | 0.00 | 0.04 | 59 | 1011.5 |
| 20260905171931 | 89 | 213 | 4.0 | 11.0 | 0.00 | 0.00 | 0.04 | 59 | 1011.4 |
| 20260905171431 | 88 | 189 | 4.0 | 11.0 | 0.00 | 0.00 | 0.04 | 59 | 1011.5 |
| 20260905170931 | 88 | 185 | 5.0 | 11.0 | 0.00 | 0.00 | 0.04 | 60 | 1011.4 |
| 20260905170430 | 88 | 192 | 5.0 | 11.0 | 0.00 | 0.00 | 0.04 | 59 | 1011.4 |
| 20260905165929 | 88 | 221 | 3.0 | 11.0 | 0.00 | 0.00 | 0.04 | 60 | 1011.6 |
| 20260905165428 | 87 | 206 | 3.0 | 11.0 | 0.00 | 0.00 | 0.04 | 61 | 1012.0 |
| 20260905164413 | 85 | 219 | 2.0 | 11.0 | 0.00 | 0.00 | 0.04 | 63 | 1012.3 |
| 20260905163912 | 84 | 159 | 2.0 | 11.0 | 0.00 | 0.00 | 0.04 | 66 | 1012.2 |
| 20260905163412 | 83 | 210 | 2.0 | 11.0 | 0.00 | 0.00 | 0.04 | 68 | 1011.9 |
| 20260905161325 | 84 | 179 | 3.0 | 11.0 | 0.00 | 0.00 | 0.04 | 65 | 1011.9 |
| 20260905160825 | 84 | 169 | 2.0 | 11.0 | 0.00 | 0.00 | 0.04 | 65 | 1011.8 |
| 20260905155808 | 86 | 179 | 5.0 | 11.0 | 0.00 | 0.00 | 0.04 | 62 | 1011.7 |
| 20260905155307 | 86 | 189 | 4.0 | 11.0 | 0.00 | 0.00 | 0.04 | 62 | 1012.0 |
| 20260905154252 | 85 | 205 | 4.0 | 11.0 | 0.00 | 0.00 | 0.04 | 63 | 1012.3 |
| 20260905153751 | 84 | 218 | 5.0 | 11.0 | 0.00 | 0.00 | 0.04 | 64 | 1012.0 |
| 20260905153250 | 84 | 186 | 3.0 | 11.0 | 0.00 | 0.00 | 0.04 | 65 | 1012.3 |
| 20260905152750 | 84 | 187 | 4.0 | 11.0 | 0.00 | 0.00 | 0.04 | 65 | 1012.1 |
| 20260905152249 | 83 | 215 | 4.0 | 11.0 | 0.00 | 0.00 | 0.04 | 66 | 1011.9 |
| 20260905151233 | 82 | 194 | 4.0 | 11.0 | 0.00 | 0.00 | 0.04 | 67 | 1011.8 |
| 20260905150733 | 82 | 155 | 3.0 | 11.0 | 0.00 | 0.00 | 0.04 | 67 | 1011.7 |
| 20260905150232 | 82 | 178 | 3.0 | 11.0 | 0.00 | 0.00 | 0.04 | 69 | 1011.7 |
| 20260905145216 | 81 | 186 | 5.0 | 11.0 | 0.00 | 0.00 | 0.04 | 70 | 1011.9 |
| 20260905144201 | 79 | 164 | 5.0 | 11.0 | 0.00 | 0.00 | 0.04 | 72 | 1011.8 |
| 20260905143700 | 79 | 166 | 5.0 | 11.0 | 0.00 | 0.00 | 0.04 | 72 | 1012.1 |
| 20260905143200 | 78 | 138 | 3.0 | 11.0 | 0.00 | 0.00 | 0.04 | 74 | 1012.2 |
| 20260905142659 | 78 | 158 | 5.0 | 11.0 | 0.00 | 0.00 | 0.04 | 74 | 1012.4 |
| 20260905141642 | 78 | 177 | 5.0 | 11.0 | 0.00 | 0.00 | 0.04 | 75 | 1012.1 |
| 20260905141142 | 77 | 166 | 3.0 | 11.0 | 0.00 | 0.00 | 0.04 | 77 | 1012.2 |
| 20260905140641 | 77 | 168 | 5.0 | 11.0 | 0.00 | 0.00 | 0.04 | 77 | 1011.8 |
| 20260905140141 | 76 | 150 | 3.0 | 11.0 | 0.00 | 0.00 | 0.04 | 78 | 1012.2 |
| 20260905135640 | 76 | 170 | 5.0 | 11.0 | 0.00 | 0.00 | 0.04 | 78 | 1012.2 |
| 20260905135139 | 76 | 153 | 5.0 | 11.0 | 0.00 | 0.00 | 0.04 | 79 | 1012.3 |
| 20260905134639 | 75 | 146 | 4.0 | 11.0 | 0.00 | 0.00 | 0.04 | 79 | 1012.3 |
| 20260905134138 | 75 | 166 | 3.0 | 11.0 | 0.00 | 0.00 | 0.04 | 80 | 1012.3 |
| 20260905132605 | 74 | 168 | 2.0 | 11.0 | 0.00 | 0.00 | 0.04 | 81 | 1012.2 |
| 20260905132104 | 74 | 142 | 4.0 | 11.0 | 0.00 | 0.00 | 0.04 | 82 | 1012.4 |
| 20260905131604 | 74 | 142 | 4.0 | 11.0 | 0.00 | 0.00 | 0.04 | 82 | 1012.4 |
| 20260905125517 | 72 | 83 | 1.0 | 11.0 | 0.00 | 0.00 | 0.04 | 85 | 1012.0 |
| 20260905125017 | 72 | 153 | 1.0 | 11.0 | 0.00 | 0.00 | 0.04 | 86 | 1012.2 |
| 20260905124517 | 72 | 150 | 2.0 | 11.0 | 0.00 | 0.00 | 0.04 | 86 | 1012.1 |
| 20260905124017 | 71 | 165 | 3.0 | 11.0 | 0.00 | 0.00 | 0.04 | 86 | 1011.9 |
| 20260905123516 | 71 | 151 | 3.0 | 11.0 | 0.00 | 0.00 | 0.04 | 87 | 1011.8 |
| 20260905123016 | 71 | 136 | 1.0 | 11.0 | 0.00 | 0.00 | 0.04 | 87 | 1012.2 |
| 20260905122515 | 71 | 147 | 4.0 | 11.0 | 0.00 | 0.00 | 0.04 | 87 | 1012.0 |
| 20260905122014 | 71 | 172 | 0.0 | 11.0 | 0.00 | 0.00 | 0.04 | 88 | 1011.9 |
| 20260905121513 | 70 | 111 | 1.0 | 11.0 | 0.00 | 0.00 | 0.04 | 88 | 1012.1 |
| 20260905121013 | 70 | 195 | 1.0 | 11.0 | 0.00 | 0.00 | 0.04 | 88 | 1012.4 |
| 20260905120512 | 70 | 103 | 1.0 | 11.0 | 0.00 | 0.00 | 0.04 | 88 | 1012.6 |
| 20260905120012 | 70 | 80 | 2.0 | 11.0 | 0.03 | 0.00 | 0.04 | 88 | 1012.1 |
| 20260905115511 | 70 | 78 | 2.0 | 11.0 | 0.04 | 0.00 | 0.04 | 88 | 1012.1 |
| 20260905114454 | 71 | 88 | 1.0 | 11.0 | 0.04 | 0.00 | 0.04 | 88 | 1012.0 |
| 20260905113954 | 71 | 98 | 2.0 | 11.0 | 0.04 | 0.00 | 0.04 | 88 | 1012.3 |
| 20260905113453 | 71 | 74 | 2.0 | 11.0 | 0.04 | 0.00 | 0.04 | 88 | 1011.9 |
| 20260905112952 | 71 | 85 | 2.0 | 11.0 | 0.04 | 0.00 | 0.04 | 88 | 1011.9 |
| 20260905112451 | 71 | 65 | 4.0 | 11.0 | 0.04 | 0.00 | 0.04 | 88 | 1011.9 |
| 20260905111950 | 71 | 84 | 3.0 | 11.0 | 0.04 | 0.00 | 0.04 | 88 | 1012.3 |
| 20260905111449 | 71 | 99 | 2.0 | 11.0 | 0.04 | 0.00 | 0.04 | 87 | 1011.7 |
| 20260905110949 | 72 | 73 | 3.0 | 11.0 | 0.04 | 0.00 | 0.04 | 86 | 1012.1 |
| 20260905110448 | 72 | 73 | 4.0 | 11.0 | 0.04 | 0.00 | 0.04 | 85 | 1011.8 |
| 20260905105948 | 73 | 43 | 4.0 | 11.0 | 0.04 | 0.00 | 0.04 | 84 | 1012.0 |
| 20260905105448 | 73 | 78 | 2.0 | 12.0 | 0.00 | 0.00 | 0.00 | 82 | 1012.1 |
| 20260905104947 | 73 | 76 | 3.0 | 12.0 | 0.00 | 0.00 | 0.00 | 81 | 1012.5 |
| 20260905104447 | 73 | 71 | 3.0 | 12.0 | 0.00 | 0.00 | 0.00 | 81 | 1012.2 |
| 20260905102915 | 74 | 44 | 6.0 | 16.0 | 0.00 | 0.00 | 0.00 | 80 | 1012.3 |
| 20260905101859 | 75 | 101 | 4.0 | 15.0 | 0.00 | 0.00 | 0.00 | 83 | 1012.1 |
| 20260905101358 | 75 | 36 | 8.0 | 15.0 | 0.00 | 0.00 | 0.00 | 87 | 1011.7 |
| 20260905100342 | 76 | 221 | 0.0 | 11.0 | 0.00 | 0.00 | 0.00 | 91 | 1011.2 |
| 20260905095842 | 76 | 221 | 0.0 | 11.0 | 0.00 | 0.00 | 0.00 | 91 | 1011.1 |
| 20260905094827 | 76 | 221 | 0.0 | 11.0 | 0.00 | 0.00 | 0.00 | 91 | 1010.8 |
| 20260905094327 | 76 | 221 | 0.0 | 11.0 | 0.00 | 0.00 | 0.00 | 91 | 1011.2 |
| 20260905093827 | 76 | 221 | 0.0 | 11.0 | 0.00 | 0.00 | 0.00 | 91 | 1011.3 |
| 20260905093326 | 76 | 220 | 0.0 | 11.0 | 0.00 | 0.00 | 0.00 | 91 | 1010.8 |
| 20260905092826 | 76 | 220 | 0.0 | 11.0 | 0.00 | 0.00 | 0.00 | 91 | 1010.9 |
| 20260905092326 | 77 | 220 | 0.0 | 11.0 | 0.00 | 0.00 | 0.00 | 91 | 1010.9 |
| 20260905091826 | 77 | 220 | 0.0 | 11.0 | 0.00 | 0.00 | 0.00 | 90 | 1010.9 |
| 20260905090811 | 77 | 220 | 0.0 | 11.0 | 0.00 | 0.00 | 0.00 | 90 | 1010.8 |
| 20260905090310 | 77 | 220 | 0.0 | 11.0 | 0.00 | 0.00 | 0.00 | 90 | 1010.9 |
| 20260905085810 | 77 | 220 | 0.0 | 11.0 | 0.00 | 0.00 | 0.00 | 90 | 1010.9 |
| 20260905085310 | 77 | 220 | 0.0 | 11.0 | 0.00 | 0.00 | 0.00 | 90 | 1010.8 |
| 20260905084809 | 77 | 220 | 0.0 | 11.0 | 0.00 | 0.00 | 0.00 | 89 | 1011.0 |
| 20260905083237 | 77 | 220 | 0.0 | 11.0 | 0.00 | 0.00 | 0.00 | 89 | 1011.0 |
| 20260905082737 | 77 | 220 | 0.0 | 11.0 | 0.00 | 0.00 | 0.00 | 89 | 1010.8 |
| 20260905082237 | 77 | 220 | 0.0 | 11.0 | 0.00 | 0.00 | 0.00 | 88 | 1010.8 |
| 20260905081736 | 78 | 220 | 0.0 | 11.0 | 0.00 | 0.00 | 0.00 | 88 | 1010.7 |
| 20260905081236 | 78 | 220 | 0.0 | 11.0 | 0.00 | 0.00 | 0.00 | 89 | 1010.8 |
| 20260905080736 | 78 | 220 | 0.0 | 11.0 | 0.00 | 0.00 | 0.00 | 89 | 1010.6 |
| 20260905080235 | 77 | 220 | 0.0 | 11.0 | 0.00 | 0.00 | 0.00 | 89 | 1010.8 |
| 20260905075735 | 77 | 220 | 0.0 | 11.0 | 0.00 | 0.00 | 0.00 | 88 | 1010.3 |
| 20260905075235 | 77 | 220 | 0.0 | 11.0 | 0.00 | 0.00 | 0.00 | 88 | 1010.2 |
| 20260905074219 | 78 | 220 | 0.0 | 11.0 | 0.00 | 0.00 | 0.00 | 88 | 1010.1 |
| 20260905073718 | 78 | 220 | 1.0 | 11.0 | 0.00 | 0.00 | 0.00 | 88 | 1010.1 |
| 20260905073218 | 78 | 177 | 1.0 | 11.0 | 0.00 | 0.00 | 0.00 | 88 | 1009.8 |
| 20260905072717 | 78 | 198 | 2.0 | 11.0 | 0.00 | 0.00 | 0.00 | 88 | 1010.1 |
| 20260905072216 | 78 | 207 | 2.0 | 11.0 | 0.00 | 0.00 | 0.00 | 88 | 1010.0 |
| 20260905071716 | 78 | 204 | 1.0 | 11.0 | 0.00 | 0.00 | 0.00 | 88 | 1010.1 |
| 20260905071215 | 78 | 204 | 0.0 | 11.0 | 0.00 | 0.00 | 0.00 | 88 | 1010.0 |
| 20260905070714 | 78 | 204 | 1.0 | 11.0 | 0.00 | 0.00 | 0.00 | 88 | 1010.2 |
| 20260905070211 | 78 | 204 | 1.0 | 11.0 | 0.00 | 0.00 | 0.00 | 87 | 1010.1 |
| 20260905065154 | 78 | 190 | 1.0 | 11.0 | 0.00 | 0.00 | 0.00 | 87 | 1010.0 |
| 20260905064139 | 78 | 201 | 2.0 | 11.0 | 0.00 | 0.00 | 0.00 | 87 | 1010.4 |
| 20260905063639 | 78 | 193 | 2.0 | 11.0 | 0.00 | 0.00 | 0.00 | 87 | 1010.5 |
| 20260905063139 | 78 | 213 | 2.0 | 11.0 | 0.00 | 0.00 | 0.00 | 87 | 1010.8 |
| 20260905062638 | 78 | 197 | 0.0 | 11.0 | 0.00 | 0.00 | 0.00 | 87 | 1010.5 |
| 20260905061622 | 78 | 199 | 1.0 | 11.0 | 0.00 | 0.00 | 0.00 | 86 | 1010.9 |
| 20260905061122 | 78 | 200 | 0.0 | 11.0 | 0.00 | 0.00 | 0.00 | 86 | 1010.5 |
| 20260905060621 | 78 | 199 | 2.0 | 11.0 | 0.00 | 0.00 | 0.00 | 86 | 1011.1 |
| 20260905055605 | 78 | 196 | 2.0 | 11.0 | 0.00 | 0.00 | 0.00 | 87 | 1010.9 |
| 20260905055105 | 78 | 197 | 1.0 | 11.0 | 0.00 | 0.00 | 0.00 | 87 | 1011.4 |
| 20260905053017 | 78 | 187 | 0.0 | 11.0 | 0.00 | 0.00 | 0.00 | 87 | 1011.2 |
| 20260905052518 | 78 | 179 | 1.0 | 11.0 | 0.00 | 0.00 | 0.00 | 87 | 1011.4 |
| 20260905051502 | 78 | 159 | 0.0 | 11.0 | 0.00 | 0.00 | 0.00 | 87 | 1011.4 |
| 20260905051002 | 78 | 159 | 1.0 | 11.0 | 0.00 | 0.00 | 0.00 | 87 | 1011.2 |
| 20260905050502 | 78 | 159 | 1.0 | 11.0 | 0.00 | 0.00 | 0.00 | 87 | 1011.2 |
| 20260905050003 | 78 | 158 | 0.0 | 11.0 | 0.00 | 0.00 | 0.00 | 87 | 1011.2 |
| 20260905045502 | 78 | 158 | 0.0 | 11.0 | 0.00 | 0.00 | 0.00 | 86 | 1011.6 |
| 20260905045002 | 78 | 158 | 0.0 | 11.0 | 0.00 | 0.00 | 0.00 | 86 | 1011.6 |